| time (UTC) | temp C | wind direction | speed KPH | gust KPH | rain 1hr cm | rain 24hr cm | rain mn cm | humidity % | barometer mb |
| 20260510055003 | 7 | 178 | 3.2 | 8.0 | 0.23 | 0.64 | 0.64 | 87 | 1003.2 |
| 20260510054503 | 7 | 176 | 3.2 | 8.0 | 0.23 | 0.64 | 0.64 | 87 | 1003.1 |
| 20260510054003 | 7 | 164 | 3.2 | 8.0 | 0.23 | 0.64 | 0.64 | 87 | 1002.9 |
| 20260510053503 | 7 | 144 | 3.2 | 8.0 | 0.23 | 0.61 | 0.61 | 87 | 1002.9 |
| 20260510053003 | 7 | 108 | 3.2 | 8.0 | 0.18 | 0.58 | 0.58 | 87 | 1002.6 |
| 20260510052503 | 7 | 96 | 3.2 | 8.0 | 0.15 | 0.56 | 0.56 | 87 | 1002.5 |
| 20260510052024 | 7 | 122 | 3.2 | 6.4 | 0.13 | 0.51 | 0.51 | 87 | 1002.4 |
| 20260510051504 | 7 | 118 | 1.6 | 6.4 | 0.10 | 0.51 | 0.51 | 87 | 1002.2 |
| 20260510051003 | 7 | 21 | 1.6 | 6.4 | 0.05 | 0.46 | 0.46 | 87 | 1002.2 |
| 20260510050503 | 7 | 3 | 1.6 | 3.2 | 0.05 | 0.43 | 0.43 | 87 | 1002.2 |
| 20260510050024 | 7 | 2 | 3.2 | 3.2 | 0.03 | 0.43 | 0.43 | 87 | 1002.1 |
| 20260510045503 | 8 | 2 | 4.8 | 4.8 | 0.03 | 0.43 | 0.43 | 87 | 1001.9 |
| 20260510045003 | 8 | 2 | 4.8 | 6.4 | 0.00 | 0.41 | 0.41 | 87 | 1001.8 |
| 20260510044504 | 8 | 360 | 4.8 | 9.7 | 0.00 | 0.41 | 0.41 | 87 | 1001.6 |
| 20260510044003 | 8 | 9 | 4.8 | 9.7 | 0.00 | 0.41 | 0.41 | 87 | 1001.4 |
| 20260510043503 | 8 | 46 | 3.2 | 8.0 | 0.00 | 0.41 | 0.41 | 87 | 1001.4 |
| 20260510043024 | 8 | 94 | 3.2 | 8.0 | 0.00 | 0.41 | 0.41 | 87 | 1001.3 |
| 20260510042525 | 8 | 114 | 1.6 | 4.8 | 0.00 | 0.41 | 0.41 | 87 | 1001.3 |
| 20260510042003 | 8 | 115 | 1.6 | 4.8 | 0.00 | 0.41 | 0.41 | 87 | 1001.1 |
| 20260510041504 | 7 | 115 | 1.6 | 4.8 | 0.00 | 0.41 | 0.41 | 87 | 1001.0 |
| 20260510041003 | 7 | 130 | 1.6 | 6.4 | 0.00 | 0.41 | 0.41 | 87 | 1000.8 |
| 20260510040503 | 7 | 133 | 0.0 | 6.4 | 0.00 | 0.41 | 0.41 | 87 | 1000.7 |
| 20260510040024 | 8 | 101 | 1.6 | 3.2 | 0.00 | 0.41 | 0.41 | 87 | 1000.7 |
| 20260510035504 | 8 | 101 | 3.2 | 3.2 | 0.00 | 0.41 | 0.41 | 87 | 1000.5 |
| 20260510035024 | 7 | 112 | 3.2 | 9.7 | 0.00 | 0.41 | 0.41 | 87 | 1000.5 |
| 20260510034503 | 7 | 128 | 4.8 | 9.7 | 0.00 | 0.41 | 0.41 | 87 | 1000.4 |
| 20260510034003 | 8 | 143 | 4.8 | 12.9 | 0.00 | 0.41 | 0.41 | 87 | 1000.2 |
| 20260510033503 | 8 | 138 | 3.2 | 12.9 | 0.00 | 0.41 | 0.41 | 87 | 1000.0 |
| 20260510033024 | 8 | 126 | 3.2 | 8.0 | 0.00 | 0.41 | 0.41 | 87 | 999.9 |
| 20260510032503 | 8 | 130 | 3.2 | 9.7 | 0.00 | 0.41 | 0.41 | 87 | 999.9 |
| 20260510032003 | 8 | 144 | 3.2 | 9.7 | 0.03 | 0.41 | 0.41 | 87 | 999.7 |
| 20260510031503 | 8 | 158 | 4.8 | 8.0 | 0.03 | 0.41 | 0.41 | 87 | 999.6 |
| 20260510031025 | 8 | 151 | 4.8 | 11.3 | 0.03 | 0.41 | 0.41 | 87 | 999.4 |
| 20260510030503 | 8 | 151 | 3.2 | 11.3 | 0.03 | 0.41 | 0.41 | 87 | 999.4 |
| 20260510030004 | 8 | 156 | 4.8 | 9.7 | 0.05 | 0.41 | 0.41 | 87 | 999.3 |
| 20260510025503 | 8 | 157 | 4.8 | 12.9 | 0.05 | 0.41 | 0.41 | 87 | 999.1 |
| 20260510025003 | 8 | 162 | 6.4 | 12.9 | 0.08 | 0.41 | 0.41 | 87 | 999.0 |
| 20260510024503 | 8 | 173 | 4.8 | 12.9 | 0.08 | 0.41 | 0.41 | 87 | 998.9 |
| 20260510024003 | 8 | 177 | 4.8 | 12.9 | 0.08 | 0.41 | 0.41 | 87 | 998.7 |
| 20260510023503 | 8 | 162 | 4.8 | 12.9 | 0.08 | 0.41 | 0.41 | 87 | 998.6 |
| 20260510023004 | 8 | 152 | 3.2 | 12.9 | 0.08 | 0.41 | 0.41 | 87 | 998.5 |
| 20260510022504 | 8 | 162 | 3.2 | 8.0 | 0.10 | 0.41 | 0.41 | 87 | 998.5 |
| 20260510022003 | 8 | 160 | 4.8 | 9.7 | 0.08 | 0.38 | 0.38 | 87 | 998.4 |
| 20260510021503 | 8 | 138 | 4.8 | 11.3 | 0.08 | 0.38 | 0.38 | 87 | 998.3 |
| 20260510021025 | 8 | 140 | 4.8 | 11.3 | 0.08 | 0.38 | 0.38 | 87 | 998.3 |
| 20260510020503 | 8 | 150 | 4.8 | 11.3 | 0.10 | 0.38 | 0.38 | 86 | 998.1 |
| 20260510020003 | 8 | 146 | 4.8 | 11.3 | 0.10 | 0.36 | 0.36 | 86 | 998.0 |
| 20260510015503 | 8 | 150 | 6.4 | 12.9 | 0.10 | 0.33 | 0.33 | 86 | 997.9 |
| 20260510015003 | 8 | 160 | 6.4 | 17.7 | 0.10 | 0.33 | 0.33 | 86 | 997.7 |
| 20260510014524 | 8 | 162 | 6.4 | 17.7 | 0.13 | 0.33 | 0.33 | 86 | 997.7 |
| 20260510014003 | 8 | 178 | 6.4 | 14.5 | 0.13 | 0.33 | 0.33 | 86 | 997.7 |
| 20260510013503 | 9 | 190 | 8.0 | 16.1 | 0.15 | 0.33 | 0.33 | 86 | 997.7 |
| 20260510013003 | 9 | 192 | 8.0 | 16.1 | 0.15 | 0.33 | 0.33 | 86 | 997.5 |
| 20260510012504 | 9 | 190 | 6.4 | 14.5 | 0.15 | 0.30 | 0.30 | 86 | 997.5 |
| 20260510012003 | 9 | 182 | 6.4 | 14.5 | 0.15 | 0.30 | 0.30 | 86 | 997.4 |
| 20260510011524 | 9 | 176 | 8.0 | 14.5 | 0.18 | 0.30 | 0.30 | 86 | 997.5 |
| 20260510011004 | 8 | 166 | 8.0 | 20.9 | 0.20 | 0.30 | 0.30 | 85 | 997.5 |
| 20260510010504 | 8 | 151 | 8.0 | 20.9 | 0.20 | 0.28 | 0.28 | 85 | 997.5 |
| 20260510010003 | 9 | 144 | 8.0 | 19.3 | 0.20 | 0.25 | 0.25 | 85 | 997.5 |
| 20260510005503 | 10 | 160 | 6.4 | 19.3 | 0.20 | 0.23 | 0.23 | 85 | 997.5 |
| 20260510005003 | 10 | 167 | 6.4 | 12.9 | 0.18 | 0.23 | 0.23 | 85 | 997.4 |
| 20260510004503 | 10 | 157 | 6.4 | 14.5 | 0.18 | 0.20 | 0.20 | 85 | 997.4 |
| 20260510004004 | 10 | 156 | 6.4 | 14.5 | 0.20 | 0.20 | 0.20 | 85 | 997.5 |
| 20260510003503 | 10 | 165 | 6.4 | 16.1 | 0.18 | 0.18 | 0.18 | 84 | 997.6 |
| 20260510003004 | 10 | 179 | 4.8 | 16.1 | 0.18 | 0.18 | 0.18 | 84 | 997.5 |
| 20260510002503 | 10 | 187 | 4.8 | 16.1 | 0.15 | 0.15 | 0.15 | 84 | 997.5 |
| 20260510002003 | 10 | 177 | 4.8 | 11.3 | 0.15 | 0.15 | 0.15 | 84 | 997.4 |
| 20260510001504 | 10 | 173 | 3.2 | 9.7 | 0.13 | 0.13 | 0.13 | 84 | 997.1 |
| 20260510001002 | 10 | 189 | 3.2 | 8.0 | 0.10 | 0.10 | 0.10 | 84 | 997.2 |
| 20260510000502 | 10 | 188 | 4.8 | 8.0 | 0.08 | 0.08 | 0.08 | 84 | 997.4 |
| 20260510000002 | 10 | 173 | 6.4 | 9.7 | 0.05 | 0.05 | 0.05 | 83 | 997.3 |
| 20260509235502 | 10 | 177 | 8.0 | 14.5 | 0.05 | 0.05 | 0.05 | 83 | 997.2 |
| 20260509235002 | 10 | 189 | 8.0 | 14.5 | 0.05 | 0.05 | 0.05 | 83 | 997.1 |
| 20260509234502 | 10 | 190 | 9.7 | 17.7 | 0.03 | 0.03 | 0.03 | 83 | 997.2 |
| 20260509234002 | 11 | 190 | 9.7 | 17.7 | 0.00 | 0.00 | 0.00 | 82 | 997.2 |
| 20260509233524 | 11 | 187 | 9.7 | 19.3 | 0.00 | 0.00 | 0.00 | 82 | 997.1 |
| 20260509233002 | 11 | 174 | 8.0 | 19.3 | 0.00 | 0.00 | 0.00 | 82 | 997.0 |
| 20260509232502 | 11 | 160 | 9.7 | 22.5 | 0.00 | 0.00 | 0.00 | 82 | 996.8 |
| 20260509232002 | 11 | 161 | 11.3 | 22.5 | 0.00 | 0.00 | 0.00 | 82 | 996.6 |
| 20260509231502 | 11 | 166 | 11.3 | 24.1 | 0.00 | 0.00 | 0.00 | 82 | 996.6 |
| 20260509231002 | 11 | 172 | 11.3 | 24.1 | 0.00 | 0.00 | 0.00 | 82 | 996.6 |
| 20260509230502 | 12 | 175 | 12.9 | 24.1 | 0.00 | 0.00 | 0.00 | 82 | 996.5 |
| 20260509230003 | 12 | 175 | 12.9 | 22.5 | 0.00 | 0.00 | 0.00 | 83 | 996.5 |
| 20260509225502 | 12 | 180 | 12.9 | 24.1 | 0.00 | 0.00 | 0.00 | 83 | 996.2 |
| 20260509225002 | 12 | 183 | 12.9 | 25.7 | 0.00 | 0.00 | 0.00 | 83 | 996.1 |
| 20260509224502 | 12 | 188 | 14.5 | 25.7 | 0.00 | 0.00 | 0.00 | 82 | 995.9 |
| 20260509224002 | 12 | 193 | 16.1 | 27.4 | 0.00 | 0.00 | 0.00 | 82 | 995.8 |
| 20260509223502 | 12 | 195 | 17.7 | 30.6 | 0.00 | 0.00 | 0.00 | 83 | 995.5 |
| 20260509223003 | 12 | 197 | 17.7 | 30.6 | 0.00 | 0.00 | 0.00 | 83 | 995.1 |
| 20260509222502 | 12 | 193 | 17.7 | 30.6 | 0.00 | 0.00 | 0.00 | 83 | 994.9 |
| 20260509222023 | 12 | 192 | 17.7 | 30.6 | 0.00 | 0.00 | 0.00 | 83 | 994.7 |
| 20260509221503 | 12 | 192 | 19.3 | 38.6 | 0.00 | 0.00 | 0.00 | 82 | 994.4 |
| 20260509221002 | 12 | 190 | 19.3 | 38.6 | 0.00 | 0.00 | 0.00 | 81 | 994.2 |
| 20260509220503 | 12 | 194 | 19.3 | 33.8 | 0.00 | 0.00 | 0.00 | 79 | 994.1 |
| 20260509220002 | 12 | 191 | 17.7 | 37.0 | 0.00 | 0.00 | 0.00 | 75 | 993.9 |
| 20260509215502 | 13 | 188 | 14.5 | 37.0 | 0.00 | 0.00 | 0.00 | 68 | 993.8 |
| 20260509215003 | 16 | 208 | 14.5 | 29.0 | 0.00 | 0.00 | 0.00 | 58 | 993.6 |
| 20260509214503 | 17 | 257 | 16.1 | 27.4 | 0.00 | 0.00 | 0.00 | 50 | 993.2 |
| 20260509214003 | 17 | 259 | 16.1 | 27.4 | 0.00 | 0.00 | 0.00 | 49 | 992.5 |
| 20260509213503 | 16 | 252 | 16.1 | 27.4 | 0.00 | 0.00 | 0.00 | 49 | 992.2 |
| 20260509213003 | 16 | 253 | 17.7 | 27.4 | 0.00 | 0.00 | 0.00 | 49 | 992.1 |
| 20260509212502 | 16 | 258 | 19.3 | 35.4 | 0.00 | 0.00 | 0.00 | 49 | 991.8 |
| 20260509212002 | 16 | 258 | 20.9 | 40.2 | 0.00 | 0.00 | 0.00 | 50 | 991.8 |
| 20260509211503 | 16 | 249 | 20.9 | 40.2 | 0.00 | 0.00 | 0.00 | 49 | 991.6 |
| 20260509211024 | 16 | 253 | 22.5 | 35.4 | 0.00 | 0.00 | 0.00 | 49 | 991.6 |
| 20260509210503 | 16 | 269 | 20.9 | 43.5 | 0.00 | 0.00 | 0.00 | 49 | 991.4 |
| 20260509210003 | 16 | 268 | 19.3 | 43.5 | 0.00 | 0.00 | 0.00 | 49 | 991.3 |
| 20260509205503 | 16 | 252 | 19.3 | 38.6 | 0.00 | 0.00 | 0.00 | 49 | 991.1 |
| 20260509205003 | 16 | 250 | 20.9 | 38.6 | 0.00 | 0.00 | 0.00 | 49 | 991.0 |
| 20260509204502 | 16 | 249 | 20.9 | 38.6 | 0.00 | 0.00 | 0.00 | 49 | 991.1 |
| 20260509204002 | 16 | 254 | 20.9 | 33.8 | 0.00 | 0.00 | 0.00 | 49 | 991.0 |
| 20260509203502 | 16 | 253 | 20.9 | 37.0 | 0.00 | 0.00 | 0.00 | 49 | 991.0 |
| 20260509203003 | 16 | 253 | 19.3 | 41.8 | 0.00 | 0.00 | 0.00 | 50 | 990.7 |
| 20260509202503 | 16 | 256 | 20.9 | 41.8 | 0.00 | 0.00 | 0.00 | 49 | 990.7 |
| 20260509202003 | 16 | 253 | 20.9 | 33.8 | 0.00 | 0.00 | 0.00 | 50 | 990.6 |
| 20260509201524 | 16 | 241 | 20.9 | 33.8 | 0.00 | 0.00 | 0.00 | 49 | 990.5 |
| 20260509201002 | 16 | 234 | 22.5 | 32.2 | 0.00 | 0.00 | 0.00 | 49 | 990.6 |
| 20260509200524 | 15 | 252 | 20.9 | 40.2 | 0.00 | 0.00 | 0.00 | 50 | 990.6 |
| 20260509200002 | 16 | 268 | 19.3 | 40.2 | 0.00 | 0.00 | 0.00 | 49 | 990.5 |
| 20260509195503 | 15 | 267 | 19.3 | 37.0 | 0.00 | 0.00 | 0.00 | 50 | 990.6 |
| 20260509195024 | 15 | 258 | 19.3 | 37.0 | 0.00 | 0.00 | 0.00 | 49 | 990.4 |
| 20260509194503 | 15 | 263 | 17.7 | 38.6 | 0.00 | 0.00 | 0.00 | 50 | 990.5 |
| 20260509194002 | 15 | 262 | 17.7 | 38.6 | 0.00 | 0.00 | 0.00 | 50 | 990.5 |
| 20260509193503 | 15 | 254 | 19.3 | 30.6 | 0.00 | 0.00 | 0.00 | 49 | 990.4 |
| 20260509193003 | 15 | 252 | 19.3 | 32.2 | 0.00 | 0.00 | 0.00 | 49 | 990.4 |
| 20260509192503 | 16 | 261 | 19.3 | 37.0 | 0.00 | 0.00 | 0.00 | 49 | 990.3 |
| 20260509192003 | 16 | 265 | 19.3 | 37.0 | 0.00 | 0.00 | 0.00 | 49 | 990.3 |
| 20260509191502 | 15 | 250 | 19.3 | 35.4 | 0.00 | 0.00 | 0.00 | 49 | 990.1 |
| 20260509191003 | 15 | 257 | 19.3 | 37.0 | 0.00 | 0.00 | 0.00 | 49 | 990.0 |
| 20260509190524 | 16 | 269 | 19.3 | 37.0 | 0.00 | 0.00 | 0.00 | 49 | 990.0 |
| 20260509190024 | 16 | 270 | 17.7 | 37.0 | 0.00 | 0.00 | 0.00 | 49 | 990.1 |
| 20260509185524 | 15 | 275 | 17.7 | 37.0 | 0.00 | 0.00 | 0.00 | 49 | 989.9 |
| 20260509185002 | 16 | 282 | 17.7 | 32.2 | 0.00 | 0.00 | 0.00 | 49 | 990.0 |
| 20260509184503 | 16 | 276 | 20.9 | 32.2 | 0.00 | 0.00 | 0.00 | 49 | 989.8 |
| 20260509184002 | 16 | 280 | 22.5 | 48.3 | 0.00 | 0.00 | 0.00 | 49 | 989.8 |
| 20260509183503 | 16 | 276 | 22.5 | 48.3 | 0.00 | 0.00 | 0.00 | 49 | 989.8 |
| 20260509183002 | 16 | 266 | 24.1 | 41.8 | 0.00 | 0.00 | 0.00 | 49 | 989.8 |
| 20260509182503 | 16 | 277 | 24.1 | 49.9 | 0.00 | 0.00 | 0.00 | 49 | 989.8 |
| 20260509182003 | 16 | 278 | 22.5 | 49.9 | 0.00 | 0.00 | 0.00 | 48 | 989.7 |
| 20260509181524 | 16 | 267 | 22.5 | 41.8 | 0.00 | 0.00 | 0.00 | 48 | 989.7 |
| 20260509181003 | 16 | 271 | 22.5 | 43.5 | 0.00 | 0.00 | 0.00 | 48 | 989.7 |
| 20260509180524 | 16 | 281 | 24.1 | 46.7 | 0.00 | 0.00 | 0.00 | 48 | 989.7 |
| 20260509180024 | 16 | 275 | 25.7 | 46.7 | 0.00 | 0.00 | 0.00 | 47 | 989.6 |
| 20260509175503 | 16 | 277 | 25.7 | 46.7 | 0.00 | 0.00 | 0.00 | 47 | 989.4 |
| 20260509175003 | 16 | 279 | 24.1 | 46.7 | 0.00 | 0.00 | 0.00 | 47 | 989.4 |
| 20260509174502 | 16 | 278 | 24.1 | 43.5 | 0.00 | 0.00 | 0.00 | 47 | 989.2 |
| 20260509174003 | 16 | 275 | 22.5 | 43.5 | 0.00 | 0.00 | 0.00 | 47 | 989.3 |
| 20260509173503 | 16 | 273 | 19.3 | 43.5 | 0.00 | 0.00 | 0.00 | 47 | 989.3 |
| 20260509173002 | 16 | 279 | 17.7 | 35.4 | 0.00 | 0.00 | 0.00 | 47 | 989.2 |
| 20260509172503 | 16 | 283 | 16.1 | 32.2 | 0.00 | 0.00 | 0.00 | 47 | 989.3 |
| 20260509172024 | 16 | 271 | 16.1 | 32.2 | 0.00 | 0.00 | 0.00 | 47 | 989.3 |
| 20260509171502 | 16 | 262 | 16.1 | 30.6 | 0.00 | 0.00 | 0.00 | 47 | 989.4 |
| 20260509171002 | 16 | 273 | 17.7 | 30.6 | 0.00 | 0.00 | 0.00 | 47 | 989.3 |
| 20260509170524 | 16 | 268 | 17.7 | 29.0 | 0.00 | 0.00 | 0.00 | 47 | 989.3 |
| 20260509170002 | 16 | 270 | 20.9 | 32.2 | 0.00 | 0.00 | 0.00 | 46 | 989.3 |
| 20260509165503 | 16 | 270 | 20.9 | 41.8 | 0.00 | 0.00 | 0.00 | 46 | 989.4 |
| 20260509165003 | 16 | 269 | 20.9 | 41.8 | 0.00 | 0.00 | 0.00 | 46 | 989.2 |
| 20260509164503 | 16 | 267 | 19.3 | 41.8 | 0.00 | 0.00 | 0.00 | 47 | 989.2 |
| 20260509164002 | 16 | 275 | 19.3 | 41.8 | 0.00 | 0.00 | 0.00 | 47 | 989.0 |
| 20260509163503 | 16 | 282 | 19.3 | 35.4 | 0.00 | 0.00 | 0.00 | 47 | 989.0 |
| 20260509163003 | 16 | 280 | 19.3 | 33.8 | 0.00 | 0.00 | 0.00 | 48 | 989.0 |
| 20260509162503 | 16 | 277 | 19.3 | 33.8 | 0.00 | 0.00 | 0.00 | 48 | 989.0 |
| 20260509162003 | 16 | 283 | 16.1 | 33.8 | 0.00 | 0.00 | 0.00 | 48 | 989.1 |
| 20260509161502 | 16 | 286 | 16.1 | 29.0 | 0.00 | 0.00 | 0.00 | 48 | 989.1 |
| 20260509161003 | 16 | 280 | 17.7 | 27.4 | 0.00 | 0.00 | 0.00 | 48 | 989.1 |
| 20260509160503 | 16 | 282 | 19.3 | 30.6 | 0.00 | 0.00 | 0.00 | 48 | 989.2 |
| 20260509160003 | 16 | 291 | 17.7 | 38.6 | 0.00 | 0.00 | 0.00 | 47 | 989.0 |
| 20260509155502 | 16 | 298 | 17.7 | 38.6 | 0.00 | 0.00 | 0.00 | 47 | 989.2 |
| 20260509155002 | 16 | 291 | 17.7 | 29.0 | 0.00 | 0.00 | 0.00 | 47 | 989.3 |
| 20260509154503 | 16 | 281 | 19.3 | 29.0 | 0.00 | 0.00 | 0.00 | 48 | 989.2 |
| 20260509154024 | 15 | 279 | 20.9 | 40.2 | 0.00 | 0.00 | 0.00 | 48 | 989.2 |
| 20260509153503 | 15 | 281 | 20.9 | 40.2 | 0.00 | 0.00 | 0.00 | 48 | 989.2 |
| 20260509153003 | 15 | 273 | 22.5 | 40.2 | 0.00 | 0.00 | 0.00 | 49 | 989.4 |
| 20260509152524 | 15 | 273 | 22.5 | 40.2 | 0.00 | 0.00 | 0.00 | 49 | 989.5 |
| 20260509152002 | 15 | 276 | 22.5 | 37.0 | 0.00 | 0.00 | 0.00 | 49 | 989.4 |
| 20260509151523 | 15 | 286 | 20.9 | 38.6 | 0.00 | 0.00 | 0.00 | 50 | 989.5 |
| 20260509151002 | 15 | 295 | 22.5 | 38.6 | 0.00 | 0.00 | 0.00 | 51 | 989.6 |
| 20260509150503 | 15 | 293 | 22.5 | 45.1 | 0.00 | 0.00 | 0.00 | 51 | 989.5 |
| 20260509150003 | 15 | 298 | 22.5 | 45.1 | 0.00 | 0.00 | 0.00 | 51 | 989.7 |
| 20260509145503 | 15 | 299 | 22.5 | 45.1 | 0.00 | 0.00 | 0.00 | 51 | 989.6 |
| 20260509145023 | 15 | 292 | 22.5 | 37.0 | 0.00 | 0.00 | 0.00 | 52 | 989.8 |
| 20260509144524 | 15 | 292 | 24.1 | 37.0 | 0.00 | 0.00 | 0.00 | 52 | 989.9 |
| 20260509144024 | 15 | 299 | 24.1 | 41.8 | 0.00 | 0.00 | 0.00 | 52 | 989.9 |
| 20260509143503 | 15 | 299 | 24.1 | 41.8 | 0.00 | 0.00 | 0.00 | 52 | 989.8 |
| 20260509143024 | 15 | 297 | 25.7 | 41.8 | 0.00 | 0.00 | 0.00 | 52 | 990.0 |
| 20260509142503 | 15 | 300 | 25.7 | 43.5 | 0.00 | 0.00 | 0.00 | 52 | 990.0 |
| 20260509142003 | 15 | 300 | 25.7 | 48.3 | 0.00 | 0.00 | 0.00 | 52 | 990.2 |
| 20260509141524 | 15 | 300 | 25.7 | 48.3 | 0.00 | 0.00 | 0.00 | 52 | 990.3 |
| 20260509141003 | 15 | 300 | 24.1 | 41.8 | 0.00 | 0.00 | 0.00 | 51 | 990.2 |
| 20260509140524 | 15 | 296 | 20.9 | 46.7 | 0.00 | 0.00 | 0.00 | 52 | 990.1 |
| 20260509140002 | 15 | 289 | 20.9 | 46.7 | 0.00 | 0.00 | 0.00 | 52 | 990.4 |
| 20260509135503 | 15 | 286 | 22.5 | 46.7 | 0.00 | 0.00 | 0.00 | 51 | 990.5 |
| 20260509135003 | 15 | 286 | 22.5 | 46.7 | 0.00 | 0.00 | 0.00 | 51 | 990.6 |
| 20260509134524 | 15 | 289 | 22.5 | 45.1 | 0.00 | 0.00 | 0.00 | 51 | 990.6 |
| 20260509134024 | 15 | 288 | 20.9 | 45.1 | 0.00 | 0.00 | 0.00 | 51 | 990.6 |
| 20260509133503 | 15 | 289 | 22.5 | 35.4 | 0.00 | 0.00 | 0.00 | 51 | 990.5 |
| 20260509133003 | 15 | 294 | 22.5 | 38.6 | 0.00 | 0.03 | 0.00 | 50 | 990.3 |
| 20260509132503 | 15 | 296 | 22.5 | 41.8 | 0.00 | 0.03 | 0.00 | 50 | 990.4 |
| 20260509132024 | 15 | 297 | 22.5 | 41.8 | 0.00 | 0.03 | 0.00 | 50 | 990.6 |
| 20260509131503 | 15 | 296 | 22.5 | 40.2 | 0.00 | 0.03 | 0.00 | 51 | 990.6 |
| 20260509131002 | 15 | 297 | 22.5 | 38.6 | 0.00 | 0.03 | 0.00 | 50 | 990.7 |
| 20260509130502 | 15 | 299 | 20.9 | 35.4 | 0.00 | 0.05 | 0.00 | 51 | 990.7 |
| 20260509130003 | 15 | 299 | 20.9 | 38.6 | 0.00 | 0.05 | 0.00 | 51 | 990.9 |
| 20260509125503 | 15 | 298 | 22.5 | 38.6 | 0.00 | 0.08 | 0.00 | 51 | 990.9 |
| 20260509125024 | 15 | 302 | 22.5 | 43.5 | 0.00 | 0.08 | 0.00 | 51 | 991.0 |
| 20260509124524 | 15 | 302 | 22.5 | 43.5 | 0.00 | 0.13 | 0.00 | 51 | 990.9 |
| 20260509124003 | 15 | 298 | 20.9 | 41.8 | 0.00 | 0.15 | 0.00 | 51 | 990.9 |
| 20260509123503 | 15 | 297 | 19.3 | 41.8 | 0.00 | 0.20 | 0.00 | 51 | 991.1 |
| 20260509123003 | 15 | 296 | 19.3 | 30.6 | 0.00 | 0.23 | 0.00 | 51 | 991.2 |
| 20260509122503 | 15 | 299 | 19.3 | 33.8 | 0.00 | 0.28 | 0.00 | 51 | 991.1 |
| 20260509122003 | 15 | 300 | 19.3 | 33.8 | 0.00 | 0.28 | 0.00 | 50 | 991.2 |
| 20260509121524 | 15 | 304 | 19.3 | 33.8 | 0.00 | 0.28 | 0.00 | 50 | 991.2 |
| 20260509121024 | 15 | 305 | 19.3 | 33.8 | 0.00 | 0.30 | 0.00 | 50 | 991.2 |
| 20260509120503 | 15 | 304 | 20.9 | 37.0 | 0.00 | 0.30 | 0.00 | 50 | 991.3 |
| 20260509120024 | 15 | 306 | 20.9 | 37.0 | 0.00 | 0.30 | 0.00 | 50 | 991.2 |
| 20260509115503 | 15 | 303 | 20.9 | 32.2 | 0.00 | 0.30 | 0.30 | 50 | 991.3 |
| 20260509115024 | 15 | 300 | 20.9 | 37.0 | 0.00 | 0.30 | 0.30 | 50 | 991.4 |
| 20260509114503 | 15 | 304 | 19.3 | 37.0 | 0.00 | 0.33 | 0.30 | 50 | 991.4 |
| 20260509114003 | 15 | 308 | 17.7 | 35.4 | 0.00 | 0.33 | 0.30 | 50 | 991.5 |
| 20260509113503 | 15 | 306 | 16.1 | 32.2 | 0.00 | 0.33 | 0.30 | 50 | 991.4 |
| 20260509113024 | 15 | 304 | 16.1 | 32.2 | 0.00 | 0.33 | 0.30 | 51 | 991.4 |
| 20260509112503 | 15 | 306 | 14.5 | 25.7 | 0.00 | 0.33 | 0.30 | 51 | 991.4 |
| 20260509112003 | 15 | 312 | 14.5 | 25.7 | 0.00 | 0.33 | 0.30 | 51 | 991.5 |
| 20260509111503 | 15 | 313 | 14.5 | 27.4 | 0.00 | 0.33 | 0.30 | 51 | 991.6 |
| 20260509111003 | 15 | 310 | 16.1 | 27.4 | 0.00 | 0.33 | 0.30 | 50 | 991.6 |
| 20260509110503 | 15 | 313 | 17.7 | 32.2 | 0.00 | 0.33 | 0.30 | 50 | 991.8 |
| 20260509110003 | 15 | 314 | 16.1 | 37.0 | 0.00 | 0.33 | 0.30 | 50 | 991.8 |
| 20260509105524 | 15 | 311 | 16.1 | 37.0 | 0.00 | 0.36 | 0.30 | 50 | 991.8 |
| 20260509105003 | 15 | 311 | 16.1 | 27.4 | 0.00 | 0.36 | 0.30 | 50 | 991.7 |
| 20260509104503 | 15 | 313 | 17.7 | 27.4 | 0.00 | 0.36 | 0.30 | 50 | 991.6 |
| 20260509104003 | 15 | 314 | 17.7 | 32.2 | 0.00 | 0.36 | 0.30 | 50 | 991.5 |
| 20260509103503 | 15 | 310 | 19.3 | 40.2 | 0.00 | 0.36 | 0.30 | 50 | 991.5 |
| 20260509103003 | 15 | 310 | 20.9 | 40.2 | 0.00 | 0.36 | 0.30 | 49 | 991.6 |
| 20260509102503 | 15 | 309 | 19.3 | 37.0 | 0.00 | 0.36 | 0.30 | 49 | 991.6 |
| 20260509102003 | 15 | 307 | 17.7 | 33.8 | 0.00 | 0.36 | 0.30 | 49 | 991.5 |
| 20260509101503 | 15 | 309 | 16.1 | 33.8 | 0.00 | 0.36 | 0.30 | 49 | 991.4 |
| 20260509101003 | 15 | 309 | 16.1 | 32.2 | 0.00 | 0.36 | 0.30 | 49 | 991.4 |
| 20260509100503 | 15 | 311 | 17.7 | 32.2 | 0.00 | 0.36 | 0.30 | 48 | 991.4 |
| 20260509100004 | 15 | 311 | 17.7 | 32.2 | 0.00 | 0.36 | 0.30 | 48 | 991.2 |
| 20260509095503 | 15 | 314 | 17.7 | 30.6 | 0.00 | 0.36 | 0.30 | 48 | 991.3 |
| 20260509095003 | 15 | 315 | 16.1 | 33.8 | 0.00 | 0.36 | 0.30 | 48 | 991.2 |
| 20260509094503 | 15 | 311 | 14.5 | 33.8 | 0.00 | 0.36 | 0.30 | 48 | 991.2 |
| 20260509094003 | 15 | 313 | 14.5 | 32.2 | 0.00 | 0.36 | 0.30 | 48 | 991.1 |
| 20260509093524 | 15 | 314 | 16.1 | 32.2 | 0.00 | 0.36 | 0.30 | 48 | 991.2 |
| 20260509093003 | 15 | 315 | 16.1 | 32.2 | 0.00 | 0.36 | 0.30 | 48 | 991.0 |
| 20260509092503 | 15 | 312 | 16.1 | 30.6 | 0.00 | 0.36 | 0.30 | 48 | 991.0 |
| 20260509092024 | 15 | 306 | 16.1 | 32.2 | 0.00 | 0.36 | 0.30 | 48 | 990.9 |
| 20260509091503 | 15 | 303 | 17.7 | 32.2 | 0.00 | 0.36 | 0.30 | 48 | 990.9 |
| 20260509091003 | 15 | 303 | 17.7 | 29.0 | 0.00 | 0.36 | 0.30 | 48 | 990.9 |
| 20260509090503 | 15 | 304 | 17.7 | 29.0 | 0.00 | 0.36 | 0.30 | 48 | 990.9 |
| 20260509090024 | 15 | 307 | 17.7 | 30.6 | 0.00 | 0.36 | 0.30 | 48 | 990.8 |
| 20260509085503 | 15 | 307 | 16.1 | 30.6 | 0.00 | 0.36 | 0.30 | 48 | 990.8 |
| 20260509085003 | 15 | 306 | 16.1 | 29.0 | 0.00 | 0.36 | 0.30 | 48 | 990.8 |
| 20260509084503 | 15 | 306 | 16.1 | 30.6 | 0.00 | 0.36 | 0.30 | 49 | 990.7 |
| 20260509084003 | 15 | 308 | 16.1 | 30.6 | 0.00 | 0.36 | 0.30 | 49 | 990.8 |
| 20260509083524 | 14 | 309 | 16.1 | 30.6 | 0.00 | 0.36 | 0.30 | 49 | 990.8 |
| 20260509083003 | 14 | 306 | 16.1 | 32.2 | 0.00 | 0.36 | 0.30 | 49 | 990.8 |
| 20260509082503 | 15 | 304 | 16.1 | 32.2 | 0.00 | 0.36 | 0.30 | 49 | 990.8 |
| 20260509082003 | 15 | 305 | 16.1 | 35.4 | 0.00 | 0.36 | 0.30 | 49 | 990.9 |
| 20260509081524 | 15 | 306 | 19.3 | 35.4 | 0.00 | 0.36 | 0.30 | 49 | 990.9 |
| 20260509081003 | 15 | 313 | 20.9 | 33.8 | 0.00 | 0.36 | 0.30 | 49 | 990.9 |
| 20260509080503 | 15 | 315 | 19.3 | 33.8 | 0.00 | 0.36 | 0.30 | 49 | 990.8 |
| 20260509080003 | 15 | 308 | 19.3 | 33.8 | 0.00 | 0.36 | 0.30 | 49 | 990.8 |
| 20260509075503 | 15 | 307 | 19.3 | 35.4 | 0.00 | 0.36 | 0.30 | 49 | 990.8 |
| 20260509075003 | 15 | 311 | 19.3 | 40.2 | 0.00 | 0.36 | 0.30 | 49 | 990.7 |
| 20260509074524 | 15 | 309 | 17.7 | 40.2 | 0.00 | 0.36 | 0.30 | 49 | 990.6 |
| 20260509074003 | 14 | 308 | 17.7 | 38.6 | 0.00 | 0.36 | 0.30 | 49 | 990.4 |
| 20260509073503 | 14 | 312 | 16.1 | 32.2 | 0.00 | 0.36 | 0.30 | 49 | 990.3 |
| 20260509073003 | 14 | 315 | 16.1 | 32.2 | 0.00 | 0.36 | 0.30 | 49 | 990.1 |
| 20260509072503 | 14 | 319 | 16.1 | 32.2 | 0.00 | 0.36 | 0.30 | 50 | 990.2 |
| 20260509072003 | 14 | 319 | 14.5 | 29.0 | 0.00 | 0.36 | 0.30 | 50 | 990.0 |
| 20260509071503 | 14 | 321 | 14.5 | 37.0 | 0.00 | 0.36 | 0.30 | 50 | 990.0 |
| 20260509071024 | 14 | 326 | 14.5 | 37.0 | 0.00 | 0.36 | 0.30 | 50 | 990.0 |
| 20260509070503 | 14 | 326 | 14.5 | 27.4 | 0.00 | 0.36 | 0.30 | 51 | 990.0 |
| 20260509070003 | 13 | 324 | 11.3 | 27.4 | 0.00 | 0.36 | 0.30 | 52 | 990.2 |
| 20260509065503 | 13 | 329 | 8.0 | 25.7 | 0.00 | 0.36 | 0.30 | 54 | 990.0 |
| 20260509065003 | 13 | 339 | 8.0 | 25.7 | 0.00 | 0.36 | 0.30 | 57 | 989.9 |
| 20260509064503 | 13 | 344 | 9.7 | 22.5 | 0.00 | 0.36 | 0.30 | 61 | 989.9 |
| 20260509064025 | 13 | 353 | 11.3 | 22.5 | 0.00 | 0.36 | 0.30 | 62 | 989.9 |
| 20260509063524 | 13 | 354 | 14.5 | 25.7 | 0.00 | 0.36 | 0.30 | 62 | 989.9 |
| 20260509063024 | 13 | 348 | 16.1 | 37.0 | 0.00 | 0.36 | 0.30 | 61 | 989.8 |
| 20260509062524 | 13 | 346 | 11.3 | 37.0 | 0.00 | 0.36 | 0.30 | 57 | 989.8 |
| 20260509062024 | 13 | 343 | 8.0 | 32.2 | 0.00 | 0.36 | 0.30 | 60 | 989.7 |
| 20260509061524 | 12 | 347 | 8.0 | 25.7 | 0.00 | 0.36 | 0.30 | 63 | 989.8 |
| 20260509061024 | 12 | 347 | 8.0 | 25.7 | 0.00 | 0.36 | 0.30 | 65 | 989.7 |
| 20260509060503 | 12 | 356 | 4.8 | 17.7 | 0.00 | 0.36 | 0.30 | 66 | 989.8 |
| 20260509060003 | 12 | 21 | 3.2 | 17.7 | 0.00 | 0.36 | 0.30 | 69 | 989.7 |
| 20260509055503 | 12 | 58 | 4.8 | 6.4 | 0.00 | 0.36 | 0.30 | 70 | 989.7 |